Time,TemperatureF,DewpointF,PressureIn,WindDirection,WindDirectionDegrees,WindSpeedMPH,WindSpeedGustMPH,Humidity,HourlyPrecipIn,Conditions,Clouds,dailyrainin,SoftwareType,DateUTC
2013-01-04 00:15:00,17.7,15.0,30.01,East,84,1.0,3.0,88,0.00,,,0.00,weatherlink.com 1.10,2013-01-04 05:15:00,
2013-01-04 00:30:00,18.7,16.0,30.00,WSW,255,2.0,5.0,88,0.00,,,0.00,weatherlink.com 1.10,2013-01-04 05:30:00,
2013-01-04 00:45:00,19.0,16.0,30.00,WSW,240,1.0,4.0,87,0.00,,,0.00,weatherlink.com 1.10,2013-01-04 05:45:00,
2013-01-04 01:00:00,19.5,17.0,30.00,NNE,19,5.0,5.0,88,0.00,,,0.00,weatherlink.com 1.10,2013-01-04 06:00:00,
2013-01-04 01:15:00,19.6,17.0,30.00,West,269,1.0,6.0,88,0.00,,,0.00,weatherlink.com 1.10,2013-01-04 06:15:00,
2013-01-04 01:30:00,19.8,17.0,30.00,West,259,1.0,6.0,89,0.00,,,0.00,weatherlink.com 1.10,2013-01-04 06:30:00,
2013-01-04 01:45:00,20.0,17.0,30.00,WNW,302,2.0,6.0,89,0.00,,,0.00,weatherlink.com 1.10,2013-01-04 06:45:00,
2013-01-04 02:00:00,20.4,18.0,30.00,SSW,208,1.0,6.0,89,0.00,,,0.00,weatherlink.com 1.10,2013-01-04 07:00:00,
2013-01-04 02:15:00,20.8,18.0,30.00,WNW,289,3.0,7.0,88,0.00,,,0.00,weatherlink.com 1.10,2013-01-04 07:15:00,
2013-01-04 02:30:00,20.9,18.0,29.99,NW,305,1.0,15.0,88,0.00,,,0.00,weatherlink.com 1.10,2013-01-04 07:30:00,
2013-01-04 02:45:00,20.7,18.0,29.99,West,276,1.0,5.0,88,0.00,,,0.00,weatherlink.com 1.10,2013-01-04 07:45:00,
2013-01-04 03:00:00,20.8,18.0,29.99,WNW,288,4.0,6.0,89,0.00,,,0.00,weatherlink.com 1.10,2013-01-04 08:00:00,
2013-01-04 03:15:00,20.6,18.0,29.98,WNW,287,2.0,4.0,89,0.00,,,0.00,weatherlink.com 1.10,2013-01-04 08:15:00,
2013-01-04 03:30:00,21.0,18.0,29.97,SSW,204,1.0,5.0,89,0.00,,,0.00,weatherlink.com 1.10,2013-01-04 08:30:00,
2013-01-04 03:45:00,21.3,18.0,29.97,WNW,287,4.0,5.0,88,0.00,,,0.00,weatherlink.com 1.10,2013-01-04 08:45:00,
2013-01-04 04:00:00,21.2,19.0,29.97,SE,145,1.0,6.0,89,0.00,,,0.00,weatherlink.com 1.10,2013-01-04 09:00:00,
2013-01-04 04:15:00,21.1,18.0,29.97,West,279,1.0,6.0,89,0.00,,,0.00,weatherlink.com 1.10,2013-01-04 09:15:00,
2013-01-04 04:30:00,21.1,18.0,29.97,WSW,250,2.0,4.0,89,0.00,,,0.00,weatherlink.com 1.10,2013-01-04 09:30:00,
2013-01-04 04:45:00,21.6,19.0,29.97,South,186,1.0,7.0,90,0.00,,,0.00,weatherlink.com 1.10,2013-01-04 09:45:00,
2013-01-04 05:00:00,22.3,20.0,29.96,West,281,0.0,4.0,89,0.00,,,0.00,weatherlink.com 1.10,2013-01-04 10:00:00,
2013-01-04 05:15:00,22.4,20.0,29.96,South,179,2.0,5.0,89,0.00,,,0.00,weatherlink.com 1.10,2013-01-04 10:15:00,
2013-01-04 05:30:00,22.5,20.0,29.96,West,267,3.0,8.0,90,0.00,,,0.00,weatherlink.com 1.10,2013-01-04 10:30:00,
2013-01-04 05:45:00,22.5,20.0,29.96,NW,309,1.0,8.0,90,0.00,,,0.00,weatherlink.com 1.10,2013-01-04 10:45:00,
2013-01-04 06:00:00,22.5,20.0,29.96,West,263,1.0,5.0,90,0.00,,,0.00,weatherlink.com 1.10,2013-01-04 11:00:00,
2013-01-04 06:15:00,22.4,20.0,29.96,ESE,123,2.0,4.0,90,0.00,,,0.00,weatherlink.com 1.10,2013-01-04 11:15:00,
2013-01-04 06:30:00,22.5,20.0,29.97,SW,222,0.0,5.0,90,0.00,,,0.00,weatherlink.com 1.10,2013-01-04 11:30:00,
2013-01-04 06:45:00,22.7,21.0,29.97,WSW,255,2.0,7.0,91,0.00,,,0.00,weatherlink.com 1.10,2013-01-04 11:45:00,
2013-01-04 07:01:00,22.8,21.0,29.97,WSW,257,1.0,6.0,91,0.00,,,0.00,weatherlink.com 1.10,2013-01-04 12:01:00,
2013-01-04 07:16:00,22.9,21.0,29.96,SE,145,1.0,6.0,91,0.00,,,0.00,weatherlink.com 1.10,2013-01-04 12:16:00,
2013-01-04 07:31:00,23.1,21.0,29.96,SSW,200,1.0,4.0,91,0.00,,,0.00,weatherlink.com 1.10,2013-01-04 12:31:00,
2013-01-04 07:46:00,23.2,21.0,29.95,West,264,3.0,7.0,91,0.00,,,0.00,weatherlink.com 1.10,2013-01-04 12:46:00,
2013-01-04 08:01:00,23.3,21.0,29.95,NNW,329,1.0,6.0,90,0.00,,,0.00,weatherlink.com 1.10,2013-01-04 13:01:00,
2013-01-04 08:16:00,23.7,21.0,29.95,SW,236,3.0,4.0,90,0.00,,,0.00,weatherlink.com 1.10,2013-01-04 13:16:00,
2013-01-04 08:31:00,24.3,21.0,29.94,WNW,282,0.0,7.0,88,0.00,,,0.00,weatherlink.com 1.10,2013-01-04 13:31:00,
2013-01-04 08:46:00,24.6,22.0,29.93,SSW,198,1.0,11.0,88,0.00,,,0.00,weatherlink.com 1.10,2013-01-04 13:46:00,
2013-01-04 09:01:00,25.2,22.0,29.93,SW,235,2.0,6.0,87,0.00,,,0.00,weatherlink.com 1.10,2013-01-04 14:01:00,
2013-01-04 09:16:00,25.9,22.0,29.93,SW,228,4.0,9.0,84,0.00,,,0.00,weatherlink.com 1.10,2013-01-04 14:16:00,
2013-01-04 09:31:00,25.9,21.0,29.93,SW,219,3.0,12.0,83,0.00,,,0.00,weatherlink.com 1.10,2013-01-04 14:31:00,
2013-01-04 09:46:00,25.9,21.0,29.93,ESE,105,5.0,6.0,83,0.00,,,0.00,weatherlink.com 1.10,2013-01-04 14:46:00,
2013-01-04 10:02:00,25.5,20.0,29.92,West,260,2.0,12.0,81,0.00,,,0.00,weatherlink.com 1.10,2013-01-04 15:02:00,
2013-01-04 10:16:00,25.7,20.0,29.91,WNW,292,4.0,10.0,80,0.00,,,0.00,weatherlink.com 1.10,2013-01-04 15:16:00,
2013-01-04 10:31:00,26.2,20.0,29.90,WNW,291,3.0,19.0,77,0.00,,,0.00,weatherlink.com 1.10,2013-01-04 15:31:00,
2013-01-04 10:46:00,26.5,20.0,29.89,SW,228,4.0,13.0,76,0.00,,,0.00,weatherlink.com 1.10,2013-01-04 15:46:00,
2013-01-04 11:01:00,27.0,20.0,29.88,NW,309,1.0,13.0,75,0.00,,,0.00,weatherlink.com 1.10,2013-01-04 16:01:00,
2013-01-04 11:16:00,27.6,20.0,29.87,South,183,3.0,9.0,74,0.00,,,0.00,weatherlink.com 1.10,2013-01-04 16:16:00,
2013-01-04 11:31:00,28.0,20.0,29.86,WNW,298,2.0,11.0,73,0.00,,,0.00,weatherlink.com 1.10,2013-01-04 16:31:00,
2013-01-04 11:46:00,28.6,21.0,29.85,WSW,248,2.0,13.0,72,0.00,,,0.00,weatherlink.com 1.10,2013-01-04 16:46:00,
2013-01-04 12:01:00,29.0,21.0,29.84,West,281,1.0,11.0,71,0.00,,,0.00,weatherlink.com 1.10,2013-01-04 17:01:00,
2013-01-04 12:16:00,28.9,21.0,29.83,WNW,291,5.0,9.0,71,0.00,,,0.00,weatherlink.com 1.10,2013-01-04 17:16:00,
2013-01-04 12:31:00,29.0,21.0,29.82,WNW,302,4.0,15.0,71,0.00,,,0.00,weatherlink.com 1.10,2013-01-04 17:31:00,
2013-01-04 12:46:00,29.0,21.0,29.82,South,175,7.0,15.0,71,0.00,,,0.00,weatherlink.com 1.10,2013-01-04 17:46:00,
2013-01-04 13:01:00,29.1,21.0,29.82,WNW,302,7.0,18.0,71,0.00,,,0.00,weatherlink.com 1.10,2013-01-04 18:01:00,
2013-01-04 13:17:00,29.2,21.0,29.81,West,278,2.0,14.0,72,0.00,,,0.00,weatherlink.com 1.10,2013-01-04 18:17:00,
2013-01-04 13:32:00,29.3,21.0,29.82,WNW,288,2.0,20.0,72,0.00,,,0.00,weatherlink.com 1.10,2013-01-04 18:32:00,
2013-01-04 13:47:00,29.2,22.0,29.82,West,271,4.0,11.0,73,0.00,,,0.00,weatherlink.com 1.10,2013-01-04 18:47:00,
2013-01-04 14:02:00,29.1,21.0,29.83,WNW,284,3.0,10.0,73,0.00,,,0.00,weatherlink.com 1.10,2013-01-04 19:02:00,
2013-01-04 14:17:00,29.0,22.0,29.82,West,271,5.0,7.0,74,0.00,,,0.00,weatherlink.com 1.10,2013-01-04 19:17:00,
2013-01-04 14:32:00,29.0,22.0,29.82,WNW,285,4.0,6.0,74,0.00,,,0.00,weatherlink.com 1.10,2013-01-04 19:32:00,
2013-01-04 14:47:00,29.1,22.0,29.83,South,176,2.0,9.0,74,0.00,,,0.00,weatherlink.com 1.10,2013-01-04 19:47:00,
2013-01-04 15:02:00,29.0,22.0,29.82,WNW,297,2.0,11.0,75,0.00,,,0.00,weatherlink.com 1.10,2013-01-04 20:02:00,
2013-01-04 15:32:00,28.7,22.0,29.82,SW,228,5.0,12.0,75,0.00,,,0.00,weatherlink.com 1.10,2013-01-04 20:32:00,
2013-01-04 15:47:00,28.8,22.0,29.82,WNW,287,5.0,9.0,75,0.00,,,0.00,weatherlink.com 1.10,2013-01-04 20:47:00,
2013-01-04 16:02:00,28.9,22.0,29.82,WSW,256,2.0,9.0,75,0.00,,,0.00,weatherlink.com 1.10,2013-01-04 21:02:00,
2013-01-04 16:17:00,28.9,22.0,29.81,WNW,284,1.0,9.0,75,0.00,,,0.00,weatherlink.com 1.10,2013-01-04 21:17:00,
2013-01-04 16:32:00,28.9,22.0,29.81,SW,226,2.0,10.0,75,0.00,,,0.00,weatherlink.com 1.10,2013-01-04 21:32:00,
2013-01-04 16:47:00,29.0,22.0,29.81,WSW,255,8.0,12.0,75,0.00,,,0.00,weatherlink.com 1.10,2013-01-04 21:47:00,
2013-01-04 17:02:00,29.0,22.0,29.81,WSW,253,2.0,11.0,75,0.00,,,0.00,weatherlink.com 1.10,2013-01-04 22:02:00,
2013-01-04 17:17:00,29.1,22.0,29.81,WNW,284,3.0,7.0,75,0.00,,,0.00,weatherlink.com 1.10,2013-01-04 22:17:00,
2013-01-04 17:32:00,29.0,22.0,29.81,SW,229,1.0,10.0,75,0.00,,,0.00,weatherlink.com 1.10,2013-01-04 22:32:00,
2013-01-04 17:47:00,28.9,22.0,29.81,WNW,298,4.0,7.0,76,0.00,,,0.00,weatherlink.com 1.10,2013-01-04 22:47:00,
2013-01-04 18:02:00,28.8,22.0,29.82,WSW,243,4.0,12.0,76,0.00,,,0.00,weatherlink.com 1.10,2013-01-04 23:02:00,
2013-01-04 18:17:00,28.6,22.0,29.82,West,280,3.0,7.0,76,0.00,,,0.00,weatherlink.com 1.10,2013-01-04 23:17:00,
2013-01-04 18:32:00,28.6,22.0,29.82,WNW,297,2.0,8.0,77,0.00,,,0.00,weatherlink.com 1.10,2013-01-04 23:32:00,
2013-01-04 18:47:00,28.5,22.0,29.82,West,270,2.0,17.0,77,0.00,,,0.00,weatherlink.com 1.10,2013-01-04 23:47:00,
2013-01-04 19:02:00,28.6,22.0,29.82,West,274,6.0,10.0,77,0.00,,,0.00,weatherlink.com 1.10,2013-01-05 00:02:00,
2013-01-04 19:17:00,28.4,22.0,29.82,SSE,163,3.0,6.0,78,0.00,,,0.00,weatherlink.com 1.10,2013-01-05 00:17:00,
2013-01-04 19:32:00,28.4,22.0,29.82,WSW,249,3.0,7.0,78,0.00,,,0.00,weatherlink.com 1.10,2013-01-05 00:32:00,
2013-01-04 19:47:00,28.4,22.0,29.82,SSE,151,3.0,7.0,78,0.00,,,0.00,weatherlink.com 1.10,2013-01-05 00:47:00,
2013-01-04 20:02:00,28.5,22.0,29.82,West,262,3.0,11.0,77,0.00,,,0.00,weatherlink.com 1.10,2013-01-05 01:02:00,
2013-01-04 20:17:00,28.6,22.0,29.82,SSW,199,3.0,9.0,77,0.00,,,0.00,weatherlink.com 1.10,2013-01-05 01:17:00,
2013-01-04 20:32:00,28.8,22.0,29.82,SSW,208,1.0,12.0,76,0.00,,,0.00,weatherlink.com 1.10,2013-01-05 01:32:00,
2013-01-04 20:47:00,28.8,22.0,29.82,WNW,285,5.0,12.0,76,0.00,,,0.00,weatherlink.com 1.10,2013-01-05 01:47:00,
2013-01-04 21:02:00,28.8,22.0,29.82,ESE,117,4.0,17.0,76,0.00,,,0.00,weatherlink.com 1.10,2013-01-05 02:02:00,
2013-01-04 21:17:00,28.6,23.0,29.82,WSW,242,6.0,15.0,78,0.00,,,0.00,weatherlink.com 1.10,2013-01-05 02:17:00,
2013-01-04 21:32:00,28.4,22.0,29.82,WNW,285,1.0,22.0,78,0.00,,,0.00,weatherlink.com 1.10,2013-01-05 02:32:00,
2013-01-04 21:47:00,28.3,23.0,29.82,WSW,242,2.0,12.0,79,0.00,,,0.00,weatherlink.com 1.10,2013-01-05 02:47:00,
2013-01-04 22:02:00,28.1,22.0,29.82,SW,214,3.0,10.0,79,0.00,,,0.00,weatherlink.com 1.10,2013-01-05 03:02:00,
2013-01-04 22:17:00,27.8,22.0,29.82,SSW,205,3.0,12.0,80,0.00,,,0.00,weatherlink.com 1.10,2013-01-05 03:17:00,
2013-01-04 22:32:00,27.8,22.0,29.82,West,278,6.0,11.0,80,0.00,,,0.00,weatherlink.com 1.10,2013-01-05 03:32:00,
2013-01-04 22:47:00,27.8,23.0,29.82,SW,221,3.0,8.0,81,0.00,,,0.00,weatherlink.com 1.10,2013-01-05 03:47:00,
2013-01-04 23:02:00,27.8,23.0,29.82,SW,224,5.0,11.0,81,0.00,,,0.00,weatherlink.com 1.10,2013-01-05 04:02:00,
2013-01-04 23:17:00,27.8,22.0,29.81,NW,321,4.0,10.0,80,0.00,,,0.00,weatherlink.com 1.10,2013-01-05 04:17:00,
2013-01-04 23:32:00,27.9,23.0,29.82,SSE,152,3.0,11.0,80,0.00,,,0.00,weatherlink.com 1.10,2013-01-05 04:32:00,
2013-01-04 23:47:00,28.0,23.0,29.82,West,260,4.0,12.0,80,0.00,,,0.00,weatherlink.com 1.10,2013-01-05 04:47:00,